Regional Weather Roundup
Issued by NWS

Home | Current Version | Previous Version | Text Only | Print | Product List | Glossary Off
Versions: 1 2 3 4 5 6 7 8 9 10 11 12 13 14 15 16 17 18 19 20 21 22 23 24 25 26 27 28 29 30 31 32 33 34 35 36 37 38 39 40 41 42 43 44 45 46 47 48

000
ASUS43 KDMX 222007
RWRIA

WEATHER ROUNDUP FOR IOWA
NATIONAL WEATHER SERVICE DES MOINES IA
200 PM CST SAT NOV 22 2014

NOTE: "FAIR" INDICATES FEW OR NO CLOUDS BELOW 12,000 FEET WITH NO
SIGNIFICANT WEATHER AND/OR OBSTRUCTIONS TO VISIBILITY.

* - THESE STATIONS ARE NOT NWS STATIONS...THUS NOT UNDER NWS
QUALITY CONTROL.  THEY ALSO DO NOT REPORT WEATHER SUCH
AS PRECIPITATION OR FOG.

IAZ001>003-012>014-020>022-031>034-043>046-222100-
   NORTHWEST IOWA

CITY           SKY/WX    TMP DP  RH WIND       PRES   REMARKS
CARROLL *      CLOUDY    43  41  93 SW14      29.72F
CHEROKEE *     PTSUNNY   41  39  93 S18       29.67F FOG
DENISON *      CLOUDY    43  43 100 S12       29.69F FOG
LE MARS *      MOSUNNY   43  37  81 S22G30    29.65F
ORANGE CITY *  PTSUNNY   43  37  81 S18G24    29.62F
SHELDON *      CLOUDY    39  39 100 S20       29.62F FOG     WCI  30
SIOUX CITY     MOSUNNY   46  38  73 S14       29.68F
SPENCER        CLOUDY    40  37  89 S15       29.66F FOG     WCI  32
STORM LAKE *   CLOUDY    39  39 100 S23       29.68F FOG     WCI  29
$$

IAZ055>058-069>071-079>083-090>094-222100-
   SOUTHWEST IOWA

CITY           SKY/WX    TMP DP  RH WIND       PRES   REMARKS
ATLANTIC *     SUNNY     50  45  81 S13G21    29.73F
AUDUBON *      SUNNY     46  41  81 S12G17    29.73F
CLARINDA *     CLOUDY    54  50  87 S7        29.78F
COUNCIL BLFS * SUNNY     52  45  76 S10       29.70F
CRESTON *      CLOUDY    50  50 100 SW13      29.77F FOG
HARLAN  *      SUNNY     46  45  93 S8        29.76F
LAMONI         FOG       50  50 100 SW9       29.79F VSB 1/4
RED OAK *      PTSUNNY   55  46  71 S12       29.74F
SHENANDOAH *   CLOUDY    55  48  76 S13       29.75F
$$

IAZ047>049-059>061-072>074-084-222100-
   CENTRAL IOWA

CITY           SKY/WX    TMP DP  RH WIND       PRES   REMARKS
AMES           SUNNY     51  42  71 SW15      29.75F
ANKENY *       SUNNY     55  45  67 SW10G18   29.76F
CHARITON *     CLOUDY    52  50  93 SW10      29.79F FOG
DES MOINES     MOSUNNY   56  44  64 SW15      29.76F
GRINNELL*      CLOUDY    52  48  87 SW17G24   29.77F
KNOXVILLE *    CLOUDY    52  48  87 SW10G17   29.78S FOG
MARSHALLTOWN   SUNNY     53  44  71 SW14      29.75F
PELLA *        CLOUDY    52  48  87 SW9G16    29.80F FOG
PERRY *          N/A     50  43  76 SW14      29.73F
$$

IAZ004>006-015-016-023>025-035-036-222100-
   NORTH CENTRAL IOWA

CITY           SKY/WX    TMP DP  RH WIND       PRES   REMARKS
ALGONA *       CLOUDY    39  39 100 SW21G28   29.69F FOG     WCI  29
CLARION *      CLOUDY    45  45 100 S20       29.71F FOG
ESTHERVILLE    CLOUDY    37  36  96 S17       29.66F FOG     WCI  27
FORT DODGE *   CLOUDY    43  39  87 S17G23    29.72F
MASON CITY     CLOUDY    40  40 100 S16       29.72F FOG     WCI  31
FOREST CITY *  CLOUDY    39  39 100 S10       29.70F FOG     WCI  32
IOWA FALLS *     N/A     50  43  76 SW14      29.74F
$$

IAZ007>011-017>019-026>030-037>042-050>054-066-222100-
   NORTHEAST IOWA

CITY           SKY/WX    TMP DP  RH WIND       PRES   REMARKS
CEDAR RAPIDS   CLOUDY    50  48  93 S13       29.78F FOG
CHARLES CITY * FOG       41  41 100 S9        29.74F VSB 1
CLINTON *      CLOUDY    50  46  87 SW8       29.85F
DECORAH *      FOG       39  39 100 SW8G16    29.75F VSB 1/4 WCI  34
DUBUQUE        CLOUDY    48  32  53 SW12      29.79S
MONTICELLO *   CLOUDY    50  48  93 SW14      29.80S
OELWEIN *      CLOUDY    46  45  93 SW13G18   29.76F
WATERLOO       MOSUNNY   50  44  80 SW13      29.76F
$$

IAZ064-065-067-068-078-222100-
   EAST CENTRAL IOWA

CITY           SKY/WX    TMP DP  RH WIND       PRES   REMARKS
DAVENPORT      CLOUDY    52  46  80 S9        29.83F
IOWA CITY      CLOUDY    50  49  96 S3        29.82F FOG
MT. PLEASANT * CLOUDY    54  48  82 S12G18    29.83F
MUSCATINE *    CLOUDY    57  50  77 S14       29.83F
QUAD CITIES    CLOUDY    55  48  77 SW10      29.83F
$$

IAZ062-063-075>077-085>089-095>099-222100-
   SOUTHEAST IOWA

CITY           SKY/WX    TMP DP  RH WIND       PRES   REMARKS
BURLINGTON     CLOUDY    56  49  77 S13       29.85F
FAIRFIELD *    CLOUDY    55  50  82 S9        29.82F
FORT MADISON *   N/A     57  52  82 SW10      29.86F
KEOKUK *       CLOUDY    57  50  77 SW14G21   29.85S
OSKALOOSA *    CLOUDY    54  52  94 S9        29.80F FOG
CENTERVILLE *  CLOUDY    57  57 100 SW13G22   29.82S
OTTUMWA        CLOUDY    57  52  83 SW10      29.79F
WASHINGTON *   CLOUDY    55  55 100 SW13      29.81F
$$

ABBREVIATIONS USED IN REMARKS
   TC - TEMPERATURES IN CELSIUS
  WCI - WIND CHILL INDEX
   HX - HEAT INDEX
  VSB - VISIBILITY
$$



USA.gov is the U.S. government's official web portal to all federal, state and local government web resources and services.